GFSFLT2_prec_pwat_159.txt.gz
Precipitable_Water
1.53 1.55 1.55 1.58 1.59 1.56 1.48 1.45 1.43 1.44 1.45 1.46 1.45 1.45 1.44 1.45 1.39 1.39 1.40 1.40 1.38 1.37 1.36 1.36 1.37 1.42 1.46 1.46 1.47 1.48 1.47 1.45
1.53 1.56 1.60 1.57 1.50 1.43 1.39 1.39 1.39 1.39 1.42 1.43 1.43 1.42 1.39 1.33 1.29 1.30 1.30 1.31 1.30 1.30 1.30 1.31 1.32 1.35 1.38 1.42 1.45 1.45 1.48 1.48
1.44 1.46 1.45 1.39 1.34 1.31 1.31 1.33 1.35 1.37 1.38 1.40 1.41 1.38 1.31 1.21 1.20 1.18 1.21 1.23 1.25 1.25 1.27 1.28 1.29 1.28 1.31 1.34 1.40 1.42 1.43 1.47
1.30 1.32 1.28 1.26 1.21 1.23 1.22 1.21 1.21 1.22 1.22 1.23 1.23 1.24 1.18 1.13 1.07 1.05 1.03 1.05 1.11 1.12 1.17 1.18 1.26 1.30 1.40 1.42 1.37 1.38 1.41 1.43
1.18 1.21 1.22 1.16 1.09 1.07 1.01 0.99 0.94 0.98 1.05 1.11 1.13 1.09 1.05 1.02 1.00 0.99 0.98 0.96 1.00 1.04 1.09 1.11 1.13 1.18 1.21 1.26 1.29 1.32 1.33 1.40
1.14 1.18 1.15 1.03 0.93 0.86 0.83 0.80 0.82 0.79 0.84 0.89 0.92 0.91 0.90 0.91 0.88 0.85 0.82 0.80 0.79 0.81 0.86 0.86 0.86 1.00 1.09 1.11 1.15 1.21 1.25 1.26
0.99 1.02 0.92 0.84 0.78 0.76 0.75 0.74 0.74 0.74 0.72 0.75 0.76 0.72 0.71 0.71 0.69 0.67 0.66 0.65 0.63 0.63 0.64 0.65 0.66 0.69 0.76 0.80 0.89 0.98 1.02 1.04
0.91 0.84 0.79 0.75 0.74 0.73 0.72 0.73 0.72 0.70 0.67 0.66 0.65 0.63 0.62 0.59 0.58 0.55 0.53 0.51 0.50 0.49 0.48 0.47 0.49 0.53 0.55 0.59 0.64 0.70 0.84 0.95
0.83 0.78 0.76 0.73 0.73 0.73 0.72 0.71 0.70 0.66 0.63 0.62 0.60 0.59 0.56 0.53 0.50 0.48 0.47 0.47 0.46 0.46 0.45 0.44 0.42 0.42 0.41 0.45 0.46 0.50 0.56 0.67
0.81 0.77 0.76 0.75 0.75 0.73 0.71 0.70 0.68 0.65 0.64 0.61 0.57 0.53 0.53 0.52 0.51 0.50 0.51 0.50 0.50 0.48 0.45 0.43 0.42 0.41 0.41 0.39 0.38 0.38 0.40 0.49
0.77 0.79 0.77 0.77 0.76 0.74 0.71 0.69 0.65 0.63 0.61 0.58 0.55 0.53 0.54 0.53 0.53 0.53 0.53 0.51 0.51 0.49 0.48 0.47 0.43 0.42 0.40 0.38 0.38 0.39 0.42 0.43
0.81 0.81 0.79 0.78 0.76 0.74 0.70 0.67 0.64 0.62 0.59 0.58 0.57 0.55 0.55 0.56 0.57 0.56 0.55 0.53 0.52 0.52 0.49 0.49 0.46 0.44 0.41 0.42 0.44 0.43 0.47 0.55
0.82 0.80 0.81 0.79 0.74 0.69 0.67 0.63 0.63 0.60 0.59 0.59 0.58 0.57 0.56 0.56 0.57 0.56 0.55 0.54 0.53 0.52 0.49 0.46 0.46 0.45 0.42 0.37 0.41 0.53 0.61 0.62
0.85 0.84 0.83 0.81 0.77 0.75 0.72 0.66 0.64 0.61 0.60 0.59 0.59 0.58 0.58 0.57 0.59 0.57 0.55 0.54 0.54 0.52 0.49 0.46 0.48 0.47 0.38 0.38 0.36 0.46 0.55 0.56
0.84 0.85 0.84 0.83 0.81 0.78 0.73 0.70 0.64 0.60 0.60 0.58 0.58 0.59 0.59 0.60 0.61 0.59 0.57 0.57 0.54 0.51 0.49 0.46 0.42 0.45 0.45 0.40 0.33 0.34 0.39 0.52
0.85 0.85 0.84 0.84 0.82 0.76 0.71 0.63 0.57 0.61 0.60 0.60 0.59 0.60 0.59 0.62 0.62 0.60 0.57 0.56 0.53 0.50 0.49 0.45 0.42 0.38 0.42 0.43 0.46 0.43 0.34 0.32
0.84 0.85 0.84 0.83 0.82 0.79 0.74 0.64 0.67 0.64 0.61 0.60 0.60 0.60 0.63 0.61 0.59 0.58 0.57 0.55 0.51 0.47 0.44 0.42 0.41 0.38 0.37 0.36 0.38 0.43 0.42 0.34
0.82 0.83 0.82 0.84 0.83 0.82 0.75 0.68 0.65 0.60 0.59 0.58 0.59 0.62 0.59 0.58 0.57 0.56 0.54 0.51 0.47 0.45 0.43 0.40 0.38 0.37 0.35 0.35 0.33 0.31 0.31 0.31
0.79 0.81 0.79 0.82 0.82 0.77 0.72 0.70 0.64 0.61 0.61 0.61 0.61 0.58 0.56 0.55 0.55 0.52 0.49 0.47 0.45 0.43 0.40 0.37 0.36 0.34 0.34 0.32 0.32 0.31 0.32 0.31
0.74 0.75 0.74 0.77 0.75 0.73 0.72 0.67 0.65 0.64 0.65 0.64 0.58 0.55 0.55 0.56 0.55 0.51 0.47 0.46 0.44 0.42 0.39 0.34 0.34 0.33 0.33 0.33 0.32 0.32 0.32 0.32

GFSFLT2_prec_pwat_162.txt.gz
Precipitable_Water
1.44 1.44 1.43 1.44 1.48 1.49 1.52 1.49 1.43 1.41 1.45 1.44 1.43 1.42 1.41 1.41 1.41 1.37 1.33 1.34 1.33 1.33 1.33 1.33 1.34 1.34 1.35 1.37 1.38 1.38 1.37 1.35
1.43 1.43 1.46 1.48 1.51 1.52 1.49 1.40 1.38 1.38 1.40 1.39 1.39 1.38 1.37 1.34 1.30 1.25 1.25 1.24 1.23 1.24 1.25 1.26 1.27 1.28 1.30 1.33 1.36 1.36 1.35 1.36
1.47 1.42 1.45 1.48 1.46 1.37 1.34 1.33 1.34 1.35 1.37 1.37 1.38 1.35 1.29 1.19 1.17 1.14 1.12 1.10 1.11 1.11 1.13 1.15 1.16 1.19 1.27 1.30 1.32 1.31 1.34 1.35
1.42 1.38 1.36 1.33 1.26 1.26 1.29 1.28 1.28 1.27 1.26 1.25 1.24 1.18 1.15 1.08 1.05 1.01 0.99 0.95 0.98 1.00 1.04 1.11 1.17 1.16 1.21 1.27 1.31 1.35 1.38 1.33
1.35 1.31 1.28 1.19 1.17 1.19 1.18 1.15 1.12 1.12 1.12 1.15 1.13 1.09 1.07 1.05 1.01 0.96 0.95 0.90 0.88 0.89 0.96 0.98 0.96 1.03 1.09 1.14 1.16 1.19 1.24 1.29
1.29 1.27 1.24 1.18 1.13 1.07 0.98 0.91 0.87 0.84 0.93 1.00 1.01 1.00 0.92 0.93 0.88 0.84 0.76 0.74 0.69 0.70 0.71 0.73 0.73 0.78 0.82 0.86 1.01 1.06 1.11 1.20
1.22 1.26 1.25 1.14 0.97 0.88 0.82 0.79 0.77 0.76 0.78 0.82 0.81 0.78 0.74 0.73 0.70 0.66 0.62 0.60 0.57 0.55 0.56 0.55 0.55 0.59 0.62 0.62 0.65 0.75 0.83 0.90
1.26 1.18 1.11 0.99 0.82 0.78 0.75 0.75 0.72 0.70 0.68 0.70 0.69 0.68 0.63 0.61 0.58 0.55 0.51 0.49 0.47 0.47 0.45 0.45 0.43 0.44 0.44 0.46 0.49 0.51 0.53 0.61
1.09 1.04 0.98 0.86 0.77 0.74 0.72 0.71 0.70 0.68 0.67 0.66 0.65 0.64 0.59 0.58 0.54 0.52 0.50 0.52 0.50 0.48 0.47 0.47 0.46 0.46 0.44 0.45 0.44 0.43 0.42 0.46
1.03 0.99 0.92 0.83 0.73 0.71 0.72 0.72 0.70 0.68 0.67 0.64 0.62 0.60 0.59 0.56 0.53 0.50 0.53 0.53 0.52 0.49 0.48 0.46 0.45 0.45 0.45 0.42 0.42 0.42 0.42 0.44
0.96 0.93 0.88 0.80 0.76 0.74 0.73 0.72 0.69 0.68 0.68 0.65 0.62 0.61 0.60 0.57 0.54 0.53 0.55 0.54 0.54 0.52 0.51 0.51 0.47 0.48 0.45 0.43 0.45 0.48 0.51 0.50
0.91 0.92 0.86 0.80 0.76 0.74 0.72 0.69 0.68 0.69 0.69 0.66 0.64 0.62 0.62 0.60 0.58 0.56 0.58 0.56 0.55 0.53 0.51 0.51 0.53 0.47 0.44 0.45 0.45 0.50 0.59 0.73
0.85 0.87 0.86 0.81 0.74 0.69 0.67 0.64 0.66 0.67 0.67 0.67 0.65 0.64 0.63 0.63 0.61 0.58 0.59 0.57 0.56 0.53 0.52 0.49 0.51 0.48 0.40 0.37 0.50 0.64 0.64 0.69
0.85 0.86 0.87 0.83 0.78 0.75 0.72 0.69 0.68 0.68 0.68 0.68 0.67 0.66 0.65 0.64 0.62 0.59 0.58 0.59 0.57 0.55 0.52 0.49 0.52 0.49 0.40 0.41 0.39 0.54 0.56 0.67
0.86 0.88 0.89 0.86 0.82 0.79 0.74 0.73 0.71 0.68 0.66 0.66 0.66 0.67 0.66 0.64 0.62 0.60 0.60 0.62 0.59 0.55 0.52 0.49 0.45 0.48 0.47 0.41 0.35 0.35 0.43 0.56
0.90 0.91 0.92 0.89 0.86 0.80 0.74 0.69 0.64 0.66 0.67 0.68 0.66 0.67 0.66 0.65 0.62 0.61 0.62 0.62 0.56 0.54 0.53 0.50 0.46 0.41 0.43 0.43 0.43 0.44 0.35 0.31
0.92 0.93 0.91 0.89 0.86 0.82 0.76 0.69 0.70 0.72 0.71 0.68 0.67 0.67 0.65 0.63 0.61 0.62 0.60 0.58 0.55 0.52 0.48 0.45 0.44 0.39 0.38 0.36 0.35 0.38 0.39 0.31
0.90 0.91 0.90 0.89 0.89 0.84 0.79 0.75 0.72 0.72 0.71 0.67 0.67 0.64 0.61 0.60 0.61 0.60 0.59 0.57 0.53 0.50 0.49 0.45 0.42 0.39 0.37 0.35 0.32 0.30 0.28 0.28
0.86 0.87 0.86 0.87 0.88 0.86 0.83 0.78 0.76 0.74 0.70 0.67 0.62 0.59 0.59 0.62 0.64 0.63 0.57 0.56 0.51 0.48 0.45 0.42 0.41 0.38 0.35 0.33 0.34 0.32 0.32 0.30
0.81 0.82 0.82 0.83 0.85 0.85 0.83 0.80 0.76 0.73 0.69 0.64 0.60 0.60 0.63 0.63 0.59 0.58 0.58 0.54 0.50 0.45 0.42 0.39 0.37 0.34 0.32 0.30 0.29 0.29 0.30 0.29

GFSFLT2_prec_pwat_165.txt.gz
Precipitable_Water
1.33 1.38 1.38 1.34 1.33 1.36 1.39 1.42 1.45 1.44 1.40 1.37 1.37 1.37 1.37 1.37 1.36 1.37 1.34 1.30 1.28 1.27 1.27 1.27 1.28 1.29 1.29 1.30 1.32 1.32 1.29 1.28
1.34 1.39 1.41 1.37 1.36 1.42 1.48 1.48 1.48 1.41 1.39 1.39 1.39 1.37 1.36 1.36 1.34 1.31 1.28 1.23 1.21 1.20 1.19 1.18 1.20 1.18 1.18 1.20 1.25 1.31 1.31 1.31
1.37 1.37 1.41 1.42 1.44 1.48 1.51 1.45 1.39 1.36 1.36 1.37 1.38 1.36 1.34 1.29 1.24 1.18 1.15 1.12 1.09 1.04 1.03 1.05 1.07 1.13 1.14 1.21 1.24 1.26 1.25 1.29
1.35 1.38 1.38 1.42 1.44 1.44 1.36 1.32 1.33 1.34 1.34 1.36 1.34 1.26 1.14 1.08 1.06 1.05 1.03 0.96 0.98 0.93 0.92 0.95 0.97 1.03 1.08 1.14 1.15 1.12 1.20 1.26
1.40 1.37 1.35 1.35 1.31 1.27 1.25 1.24 1.22 1.19 1.19 1.16 1.13 1.08 1.08 1.06 0.97 0.90 0.85 0.82 0.80 0.80 0.78 0.81 0.83 0.86 0.89 0.95 1.02 1.09 1.15 1.17
1.38 1.37 1.33 1.26 1.21 1.17 1.14 1.09 1.04 0.99 0.95 0.97 1.01 0.96 0.91 0.87 0.80 0.75 0.73 0.69 0.64 0.60 0.59 0.59 0.58 0.60 0.63 0.67 0.69 0.76 0.93 1.03
1.32 1.36 1.30 1.21 1.16 1.10 1.00 0.89 0.82 0.83 0.86 0.87 0.89 0.83 0.77 0.77 0.71 0.68 0.62 0.55 0.50 0.47 0.45 0.44 0.43 0.45 0.46 0.47 0.49 0.52 0.53 0.62
1.30 1.32 1.32 1.22 1.08 0.98 0.86 0.78 0.71 0.69 0.77 0.78 0.78 0.75 0.70 0.65 0.62 0.58 0.53 0.50 0.48 0.46 0.45 0.44 0.44 0.45 0.44 0.46 0.44 0.44 0.43 0.47
1.29 1.29 1.19 1.09 1.01 0.91 0.79 0.71 0.69 0.65 0.68 0.72 0.71 0.68 0.64 0.61 0.57 0.50 0.51 0.52 0.50 0.49 0.48 0.48 0.45 0.47 0.44 0.43 0.43 0.42 0.42 0.44
1.28 1.17 1.13 1.07 0.99 0.90 0.75 0.68 0.65 0.63 0.65 0.68 0.67 0.66 0.65 0.59 0.53 0.54 0.56 0.55 0.52 0.49 0.48 0.45 0.47 0.45 0.42 0.40 0.43 0.48 0.49 0.60
1.22 1.19 1.08 1.03 0.94 0.84 0.72 0.66 0.64 0.65 0.64 0.64 0.65 0.65 0.63 0.59 0.57 0.59 0.59 0.56 0.52 0.51 0.51 0.51 0.49 0.46 0.42 0.44 0.47 0.51 0.58 0.73
1.18 1.12 1.04 0.98 0.90 0.81 0.73 0.67 0.65 0.67 0.65 0.64 0.64 0.65 0.65 0.61 0.60 0.61 0.60 0.56 0.53 0.53 0.53 0.56 0.53 0.47 0.44 0.51 0.53 0.58 0.77 0.77
1.10 1.08 0.99 0.92 0.84 0.76 0.69 0.64 0.65 0.67 0.69 0.67 0.65 0.66 0.66 0.64 0.62 0.63 0.62 0.57 0.55 0.54 0.54 0.54 0.51 0.49 0.42 0.58 0.61 0.64 0.74 0.76
1.05 1.01 0.99 0.91 0.88 0.82 0.74 0.69 0.69 0.69 0.69 0.68 0.67 0.66 0.67 0.66 0.64 0.64 0.64 0.59 0.55 0.54 0.53 0.54 0.53 0.50 0.41 0.44 0.46 0.57 0.63 0.63
1.02 1.01 0.95 0.92 0.89 0.82 0.76 0.74 0.72 0.69 0.68 0.68 0.68 0.68 0.68 0.69 0.68 0.66 0.65 0.61 0.56 0.55 0.56 0.53 0.47 0.50 0.48 0.41 0.35 0.38 0.49 0.56
1.03 1.01 0.95 0.92 0.87 0.81 0.75 0.72 0.69 0.71 0.69 0.70 0.70 0.71 0.71 0.70 0.68 0.67 0.63 0.60 0.57 0.57 0.57 0.53 0.50 0.42 0.44 0.42 0.41 0.41 0.33 0.34
1.02 1.04 1.01 0.95 0.88 0.85 0.79 0.77 0.76 0.75 0.74 0.71 0.69 0.71 0.72 0.70 0.67 0.64 0.61 0.59 0.59 0.57 0.55 0.53 0.49 0.42 0.40 0.37 0.37 0.40 0.36 0.31
1.03 1.04 0.99 0.95 0.90 0.88 0.84 0.79 0.74 0.73 0.73 0.71 0.69 0.69 0.68 0.67 0.64 0.61 0.60 0.60 0.60 0.60 0.57 0.54 0.46 0.43 0.40 0.36 0.33 0.32 0.31 0.28
1.02 1.00 0.97 0.95 0.90 0.87 0.87 0.80 0.76 0.74 0.74 0.73 0.69 0.66 0.65 0.64 0.61 0.58 0.60 0.61 0.62 0.62 0.58 0.52 0.47 0.41 0.37 0.34 0.33 0.31 0.31 0.29
0.98 0.98 0.92 0.89 0.90 0.88 0.87 0.82 0.79 0.77 0.78 0.76 0.70 0.64 0.61 0.60 0.61 0.62 0.61 0.61 0.60 0.58 0.52 0.47 0.44 0.39 0.34 0.32 0.32 0.31 0.30 0.29

GFSFLT2_prec_pwat_168.txt.gz
Precipitable_Water
1.19 1.21 1.24 1.28 1.26 1.31 1.36 1.36 1.39 1.38 1.39 1.37 1.36 1.33 1.32 1.33 1.34 1.36 1.35 1.34 1.31 1.29 1.27 1.23 1.20 1.18 1.15 1.14 1.18 1.24 1.27 1.30
1.23 1.26 1.30 1.32 1.34 1.37 1.37 1.43 1.46 1.45 1.47 1.41 1.36 1.33 1.32 1.33 1.33 1.32 1.28 1.24 1.19 1.13 1.11 1.09 1.09 1.09 1.08 1.17 1.21 1.26 1.22 1.22
1.33 1.28 1.30 1.33 1.35 1.38 1.39 1.45 1.52 1.50 1.43 1.36 1.33 1.32 1.31 1.29 1.26 1.18 1.09 1.09 1.03 0.97 0.97 0.96 0.99 1.00 1.05 1.10 1.11 1.11 1.15 1.17
1.30 1.30 1.30 1.31 1.36 1.41 1.43 1.47 1.47 1.35 1.32 1.32 1.30 1.26 1.17 1.09 1.03 1.00 0.94 0.93 0.88 0.86 0.83 0.84 0.85 0.87 0.93 0.98 1.00 1.04 1.05 1.12
1.27 1.30 1.33 1.31 1.34 1.37 1.35 1.32 1.28 1.27 1.28 1.26 1.16 1.08 1.00 0.93 0.86 0.85 0.84 0.82 0.78 0.75 0.72 0.71 0.71 0.73 0.75 0.78 0.80 0.85 0.96 1.03
1.28 1.32 1.31 1.30 1.32 1.30 1.25 1.15 1.13 1.08 1.04 1.03 0.93 0.87 0.83 0.78 0.77 0.73 0.72 0.70 0.65 0.60 0.56 0.55 0.54 0.55 0.55 0.56 0.60 0.64 0.66 0.76
1.29 1.34 1.29 1.29 1.27 1.25 1.15 1.04 0.97 0.89 0.87 0.91 0.87 0.80 0.76 0.75 0.74 0.74 0.70 0.62 0.54 0.49 0.46 0.43 0.42 0.43 0.44 0.43 0.42 0.43 0.46 0.60
1.28 1.31 1.33 1.31 1.25 1.17 1.09 1.01 0.92 0.84 0.80 0.80 0.84 0.82 0.77 0.74 0.72 0.69 0.59 0.53 0.48 0.47 0.45 0.45 0.44 0.45 0.44 0.43 0.42 0.42 0.44 0.52
1.25 1.26 1.33 1.27 1.22 1.13 1.07 0.95 0.85 0.77 0.76 0.77 0.81 0.79 0.78 0.72 0.64 0.59 0.54 0.52 0.51 0.50 0.50 0.49 0.48 0.48 0.45 0.44 0.45 0.47 0.48 0.59
1.36 1.29 1.24 1.23 1.16 1.11 1.05 0.95 0.82 0.73 0.75 0.76 0.75 0.74 0.72 0.66 0.60 0.56 0.56 0.55 0.54 0.53 0.52 0.52 0.50 0.47 0.43 0.47 0.51 0.57 0.64 0.69
1.29 1.29 1.23 1.18 1.13 1.08 1.05 0.96 0.81 0.72 0.69 0.71 0.71 0.70 0.68 0.62 0.59 0.59 0.59 0.56 0.54 0.54 0.54 0.52 0.47 0.45 0.46 0.50 0.54 0.62 0.71 0.76
1.23 1.23 1.19 1.17 1.14 1.06 1.01 0.92 0.78 0.71 0.67 0.68 0.69 0.69 0.67 0.62 0.62 0.62 0.61 0.56 0.55 0.56 0.55 0.54 0.50 0.49 0.58 0.59 0.69 0.76 0.81 0.78
1.19 1.19 1.20 1.17 1.07 1.01 0.93 0.81 0.76 0.71 0.68 0.69 0.68 0.68 0.66 0.65 0.65 0.64 0.61 0.57 0.56 0.58 0.57 0.54 0.50 0.56 0.59 0.64 0.71 0.77 0.71 0.70
1.18 1.23 1.19 1.16 1.09 1.03 0.94 0.84 0.77 0.74 0.71 0.68 0.70 0.70 0.70 0.68 0.67 0.64 0.62 0.59 0.58 0.58 0.58 0.55 0.53 0.53 0.56 0.59 0.53 0.58 0.61 0.62
1.18 1.24 1.20 1.15 1.10 1.01 0.87 0.81 0.78 0.74 0.72 0.71 0.72 0.73 0.73 0.71 0.70 0.67 0.64 0.61 0.59 0.60 0.59 0.56 0.52 0.55 0.54 0.49 0.49 0.46 0.50 0.53
1.19 1.20 1.17 1.13 1.10 0.99 0.86 0.75 0.69 0.73 0.73 0.73 0.73 0.75 0.74 0.73 0.71 0.69 0.66 0.64 0.62 0.62 0.61 0.58 0.55 0.51 0.52 0.51 0.49 0.47 0.43 0.39
1.18 1.18 1.15 1.14 1.10 1.01 0.89 0.79 0.76 0.77 0.77 0.75 0.75 0.75 0.74 0.72 0.70 0.69 0.66 0.64 0.63 0.62 0.60 0.57 0.57 0.53 0.48 0.47 0.47 0.44 0.41 0.34
1.15 1.14 1.14 1.14 1.10 0.98 0.91 0.82 0.78 0.78 0.80 0.77 0.74 0.72 0.72 0.71 0.69 0.66 0.65 0.63 0.61 0.60 0.60 0.59 0.57 0.55 0.51 0.47 0.42 0.37 0.35 0.32
1.12 1.15 1.13 1.14 1.05 0.98 0.91 0.83 0.82 0.81 0.80 0.75 0.72 0.70 0.70 0.68 0.66 0.63 0.62 0.60 0.61 0.62 0.62 0.60 0.56 0.54 0.51 0.44 0.41 0.38 0.35 0.31
1.14 1.17 1.11 1.10 1.01 0.91 0.86 0.84 0.83 0.81 0.78 0.75 0.74 0.72 0.70 0.68 0.63 0.60 0.60 0.62 0.63 0.62 0.60 0.57 0.55 0.53 0.46 0.41 0.38 0.36 0.35 0.33

GFSFLT2_prec_pwat_171.txt.gz
Precipitable_Water
1.10 1.09 1.13 1.13 1.12 1.16 1.23 1.27 1.31 1.32 1.34 1.36 1.34 1.29 1.29 1.26 1.26 1.26 1.26 1.26 1.21 1.17 1.13 1.09 1.08 1.06 1.08 1.10 1.10 1.13 1.16 1.23
1.08 1.09 1.14 1.19 1.22 1.28 1.30 1.33 1.36 1.35 1.36 1.38 1.38 1.32 1.29 1.26 1.28 1.30 1.28 1.21 1.12 1.08 1.06 1.03 1.01 1.01 1.03 1.08 1.11 1.11 1.11 1.15
1.16 1.12 1.17 1.22 1.27 1.31 1.33 1.36 1.36 1.37 1.40 1.40 1.38 1.31 1.27 1.25 1.24 1.19 1.13 1.05 1.02 1.02 0.98 0.94 0.93 0.95 0.96 0.98 1.02 1.02 1.04 1.10
1.29 1.19 1.24 1.28 1.29 1.31 1.33 1.37 1.40 1.43 1.44 1.40 1.30 1.26 1.23 1.17 1.08 1.03 0.99 0.95 0.91 0.88 0.85 0.82 0.80 0.79 0.82 0.85 0.90 0.94 0.97 1.03
1.36 1.27 1.30 1.29 1.26 1.30 1.33 1.36 1.40 1.42 1.37 1.26 1.24 1.16 1.08 1.01 0.91 0.86 0.84 0.84 0.80 0.75 0.71 0.67 0.67 0.69 0.71 0.73 0.77 0.78 0.78 0.92
1.34 1.30 1.26 1.26 1.28 1.29 1.34 1.36 1.37 1.30 1.27 1.24 1.14 0.99 0.88 0.81 0.76 0.74 0.73 0.70 0.66 0.64 0.59 0.57 0.57 0.56 0.55 0.54 0.57 0.59 0.65 0.79
1.25 1.24 1.21 1.25 1.26 1.30 1.32 1.31 1.30 1.24 1.21 1.14 1.04 0.88 0.80 0.76 0.73 0.72 0.70 0.69 0.63 0.56 0.52 0.49 0.47 0.47 0.48 0.46 0.47 0.47 0.56 0.65
1.23 1.28 1.32 1.30 1.27 1.28 1.30 1.30 1.20 1.15 1.07 0.98 0.89 0.84 0.78 0.75 0.73 0.73 0.72 0.65 0.56 0.50 0.48 0.47 0.47 0.48 0.46 0.47 0.47 0.49 0.55 0.61
1.20 1.25 1.32 1.33 1.30 1.30 1.32 1.25 1.13 1.00 0.91 0.87 0.84 0.82 0.81 0.79 0.75 0.73 0.68 0.59 0.53 0.51 0.51 0.52 0.51 0.50 0.47 0.49 0.52 0.54 0.60 0.66
1.30 1.33 1.31 1.30 1.26 1.28 1.26 1.19 1.12 1.00 0.90 0.82 0.79 0.81 0.83 0.78 0.73 0.67 0.62 0.56 0.54 0.53 0.53 0.51 0.49 0.48 0.48 0.53 0.60 0.66 0.71 0.74
1.24 1.27 1.28 1.25 1.24 1.23 1.20 1.16 1.07 0.94 0.87 0.81 0.80 0.79 0.78 0.73 0.67 0.63 0.59 0.57 0.56 0.55 0.55 0.53 0.48 0.52 0.54 0.57 0.70 0.75 0.79 0.80
1.38 1.33 1.29 1.29 1.27 1.23 1.19 1.12 1.04 0.94 0.84 0.81 0.80 0.77 0.72 0.67 0.64 0.61 0.59 0.57 0.57 0.57 0.55 0.54 0.56 0.61 0.65 0.66 0.75 0.79 0.80 0.78
1.31 1.29 1.30 1.27 1.19 1.13 1.11 1.08 1.05 0.98 0.86 0.78 0.75 0.72 0.68 0.65 0.63 0.62 0.61 0.56 0.56 0.59 0.57 0.53 0.59 0.68 0.67 0.68 0.72 0.77 0.77 0.75
1.26 1.26 1.28 1.27 1.23 1.17 1.19 1.17 1.11 1.01 0.88 0.81 0.75 0.71 0.68 0.65 0.63 0.60 0.59 0.57 0.57 0.59 0.58 0.54 0.58 0.67 0.66 0.65 0.58 0.62 0.66 0.67
1.16 1.21 1.26 1.28 1.30 1.28 1.23 1.22 1.17 1.00 0.86 0.76 0.74 0.73 0.70 0.68 0.66 0.65 0.63 0.62 0.59 0.60 0.60 0.59 0.56 0.60 0.71 0.62 0.56 0.51 0.56 0.60
1.26 1.31 1.28 1.30 1.32 1.29 1.24 1.18 1.07 0.96 0.87 0.82 0.74 0.74 0.72 0.72 0.72 0.70 0.68 0.65 0.62 0.62 0.62 0.60 0.60 0.55 0.59 0.64 0.58 0.60 0.52 0.46
1.21 1.23 1.27 1.28 1.28 1.31 1.22 1.15 1.03 0.95 0.87 0.82 0.78 0.77 0.77 0.76 0.73 0.69 0.67 0.67 0.64 0.62 0.61 0.61 0.60 0.57 0.55 0.55 0.53 0.52 0.55 0.49
1.18 1.20 1.23 1.27 1.26 1.24 1.19 1.09 1.00 0.91 0.85 0.80 0.80 0.77 0.76 0.76 0.73 0.71 0.68 0.64 0.62 0.62 0.62 0.61 0.60 0.59 0.57 0.55 0.52 0.48 0.45 0.42
1.24 1.28 1.25 1.26 1.23 1.19 1.14 1.06 0.97 0.88 0.85 0.83 0.82 0.79 0.73 0.71 0.71 0.68 0.66 0.64 0.62 0.61 0.62 0.61 0.60 0.58 0.55 0.51 0.50 0.47 0.46 0.41
1.28 1.27 1.23 1.20 1.14 1.11 1.09 1.06 0.97 0.93 0.90 0.89 0.85 0.77 0.73 0.71 0.67 0.65 0.63 0.63 0.63 0.63 0.60 0.61 0.60 0.55 0.52 0.51 0.49 0.47 0.43 0.38